Tracking 30101 objects as of 14-Dec-2024
HD Live streaming from Space Station
objects crossing your sky now

STARLINK-31480

Track STARLINK-31480 now!
10-day predictions
STARLINK-31480 is classified as:


NORAD ID: 59306
Int'l Code: 2024-056L
Perigee: 450.3 km
Apogee: 452.0 km
Inclination: 43.0 °
Period: 93.5 minutes
Semi major axis: 6822 km
RCS: Unknown
Launch date: March 24, 2024
Source: United States (US)
Launch site: AIR FORCE EASTERN TEST RANGE (AFETR)
Your satellite tracking list
Your tracking list is empty




NASA's NSSDC Master Catalog

Two Line Element Set (TLE):
1 59306U 24056L   24348.48779568 -.00000374  00000-0 -16859-5 0  9995
2 59306  42.9991 274.0291 0001248  19.0124 341.0779 15.40711463 41970
Source of the keplerian elements: AFSPC